Regional Weather Roundup
Issued by NWS

Home | Current Version | Previous Version | Text Only | Print | Product List | Glossary On
Versions: 1 2 3 4 5 6 7 8 9 10 11 12 13 14 15 16 17 18 19 20 21 22 23 24 25 26 27 28 29 30 31 32 33 34 35 36 37 38 39 40 41 42 43 44 45 46 47 48 49 50
625
ASUS45 KBOI 140710
RWRID

IDAHO REGIONAL WEATHER ROUNDUP
NATIONAL WEATHER SERVICE BOISE ID
1200 AM MST SUN FEB 14 2016

NOTE: "FAIR" INDICATES FEW OR NO CLOUDS BELOW 12000 FEET
WITH NO SIGNIFICANT WEATHER AND/OR OBSTRUCTIONS TO VISIBILITY

IDZ012-014-140800-
SOUTHWEST IDAHO


CITY           SKY/WX    TMP DP  RH WIND       PRES   REMARKS
BOISE          CLOUDY    45  29  53 NE12      30.19F
CALDWELL       CLOUDY    43  31  62 SE9       30.21S
MOUNTAIN HOME  CLOUDY    38  31  76 E6        30.20F WCI  34
$$

IDZ016-017-140800-
SOUTHCENTRAL IDAHO


CITY           SKY/WX    TMP DP  RH WIND       PRES   REMARKS
BURLEY         CLOUDY    37  29  72 W5        30.21F WCI  33
JEROME         CLOUDY    37  27  67 SE5       30.22F WCI  33
TWIN FALLS     CLOUDY    37  30  75 S9        30.20F WCI  30
$$

IDZ019>023-140800-
SOUTHEAST IDAHO


CITY           SKY/WX    TMP DP  RH WIND       PRES   REMARKS
IDAHO FALLS    CLOUDY    35  27  72 S18       30.17F WCI  24
POCATELLO      CLOUDY    35  27  72 S10       30.21F WCI  27
REXBURG        CLOUDY    33  26  75 SW9       30.15F WCI  25
$$

IDZ006-010-011-018-031-032-140800-
CENTRAL IDAHO MOUNTAINS


CITY           SKY/WX    TMP DP  RH WIND       PRES   REMARKS
MCCALL         LGT SNOW  31  29  92 SE6       30.16F FOG     WCI  25
HAILEY         CLOUDY    28  21  74 NW3       30.19F
STANLEY          N/A     29  22  75 SE7       30.16F WCI  22
SALMON         CLOUDY    34  27  75 CALM      30.10F
CHALLIS        CLOUDY    31  23  72 CALM      30.10F
$$

IDZ002-004-006-007-026-140800-
NORTHERN IDAHO


CITY           SKY/WX    TMP DP  RH WIND       PRES   REMARKS
LEWISTON       LGT RAIN  42  39  89 E3        30.14F
LOWELL           N/A     40  38  93 CALM      30.19F
COEUR D`ALENE  CLOUDY    34  32  93 SE10      30.06F WCI  26
MULLAN PASS    SNOW      25  23  92 W8        29.97F VSB 1/2 WCI  16
$$




USA.gov is the U.S. government's official web portal to all federal, state and local government web resources and services.